Location: ?????????
(41.2393°N, 22.9479°E)
Time: 12:27:07
(UTC+00:00)

Cosmos 1634 Rocket - Pass Details

Date: 17 November 2025
Orbit: 958 x 992 km, 82.9° (Epoch: 06 December)

Event Time Altitude Azimuth Distance (km) Brightness Sun altitude
Rises 17:14:34 0° 173° (S) 3,682 7.0 -23.8°
Reaches altitude 10° 17:17:07 10° 169° (S) 2,733 6.3 -24.3°
Enters shadow 17:22:52 57° 108° (ESE) 1,143 4.0 -25.4°
